Location: Unspecified
(0.0000°N, 0.0000°E)
Time: 02:33:18
(UTC+00:00)

Altair - Pass Details

Date: 27 October 2021
Orbit: 1502 x 1682 km, 47.2° (Epoch: 27 November)

Event Time Altitude Azimuth Distance (km) Brightness Sun altitude
Rises 20:40:49 0° 194° (SSW) 4,708 10.4 -42.8°
Reaches altitude 10° 20:45:01 10° 178° (S) 3,697 9.6 -43.8°
Enters shadow 20:46:32 14° 170° (S) 3,403 9.3 -44.2°
